Regional Weather Roundup
Issued by NWS Sioux Falls, SD

Home | Current Version | Previous Version | Text Only | Print | Product List | Glossary Off
Versions: 1 2 3 4 5 6 7 8 9 10 11 12 13 14 15 16 17 18 19 20 21 22 23 24 25 26 27 28 29 30 31 32 33 34 35 36 37 38 39 40 41 42 43 44 45 46 47 48 49 50

000
ASUS43 KFSD 282202
RWRFSD

WEATHER ROUNDUP FOR SE SOUTH DAKOTA/SW MINNESOTA/NW IOWA
NATIONAL WEATHER SERVICE SIOUX FALLS SD
400 PM CST SAT FEB 28 2015

NOTE: "FAIR" INDICATES FEW OR NO CLOUDS BELOW 12,000 FEET WITH NO
SIGNIFICANT WEATHER AND OR OBSTRUCTIONS TO VISIBILITY.


SDZ038>040-050-052>070-282300-
SOUTHEAST SOUTH DAKOTA

CITY           SKY/WX    TMP DP  RH WIND       PRES   REMARKS
CHAMBERLAIN    NOT AVBL
HURON          SUNNY     32  14  47 S12       30.14F WCI  23
MADISON        CLOUDY    25  14  63 S17G28    30.17F WCI  11
MITCHELL       SUNNY     34  11  38 SW14G22   30.17F WCI  25
SIOUX FALLS    PTSUNNY   27  13  55 S16       30.22F WCI  15
WINNER         FAIR      37   7  28 NW14      30.11S
YANKTON        MOSUNNY   30  10  43 S14G21    30.24S WCI  20
$$

MNZ071-072-080-081-089-090-097-098-282300-
SOUTHWEST MINNESOTA

CITY           SKY/WX    TMP DP  RH WIND       PRES   REMARKS
FAIRMONT       CLOUDY    19   9  63 S18       30.33S WCI   4
JACKSON        PTSUNNY   21  10  63 S17       30.31S WCI   7
LUVERNE        MOSUNNY   27  16  63 S20       30.25F WCI  13
MARSHALL       PTSUNNY   21  12  68 S17G23    30.28F WCI   7
MONTEVIDEO     CLOUDY    23  12  63 SW16      30.27F WCI  10
PIPESTONE      FLURRIES  21  16  79 SW18      30.21S WCI   6
REDWOOD FALLS  PTSUNNY   22  10  60 S22       30.30F WCI   6
TRACY          LGT SNOW  22  15  74 S10G20    30.27S WCI  11
WINDOM         CLOUDY    19  10  68 S14G23    30.29S WCI   6
WORTHINGTON    CLOUDY    28  10  47 S16G22    30.29S WCI  17
$$

IAZ001>003-012>014-020>022-031-032-NEZ013-014-SDZ071-282300-
NORTHWEST IOWA

CITY           SKY/WX    TMP DP  RH WIND       PRES   REMARKS
DENISON        PTSUNNY   23  14  68 S12G18    30.33S WCI  12
ESTHERVILLE    CLOUDY    19  11  70 S21       30.32F WCI   3
SIOUX CITY     CLOUDY    28  15  58 S14G24    30.31F WCI  17
SPENCER        CLOUDY    20  10  65 S16       30.32S WCI   6
$$

ABBREVIATIONS USED IN REMARKS
   TC - TEMPERATURE IN CELSIUS
  WCI - WIND CHILL INDEX
   HX - HEAT INDEX
  VSB - VISIBILITY



USA.gov is the U.S. government's official web portal to all federal, state and local government web resources and services.